TimeEDT,TemperatureF,Dew PointF,Humidity,Sea Level PressureIn,VisibilityMPH,Wind Direction,Wind SpeedMPH,Gust SpeedMPH,PrecipitationIn,Events,Conditions,WindDirDegrees,DateUTC
12:34 AM,64.4,62.6,94,30.03,10.0,NNW,3.5,-,N/A,,Overcast,340,2013-07-12 04:34:00
12:51 AM,64.9,62.1,90,30.00,10.0,NW,3.5,-,N/A,,Overcast,320,2013-07-12 04:51:00
1:51 AM,64.0,61.0,90,30.00,10.0,Calm,Calm,-,0.00,,Overcast,0,2013-07-12 05:51:00
2:51 AM,62.1,60.1,93,30.00,10.0,Calm,Calm,-,N/A,,Mostly Cloudy,0,2013-07-12 06:51:00
3:51 AM,62.1,60.1,93,29.99,10.0,Calm,Calm,-,N/A,,Overcast,0,2013-07-12 07:51:00
4:10 AM,62.6,60.8,94,30.01,10.0,West,3.5,-,N/A,,Overcast,260,2013-07-12 08:10:00
4:41 AM,60.8,59.0,94,30.01,10.0,Calm,Calm,-,N/A,,Mostly Cloudy,0,2013-07-12 08:41:00
4:51 AM,61.0,59.0,93,29.99,9.0,Calm,Calm,-,N/A,,Mostly Cloudy,0,2013-07-12 08:51:00
5:51 AM,60.1,57.9,93,30.01,8.0,Calm,Calm,-,N/A,,Clear,0,2013-07-12 09:51:00
6:03 AM,60.8,57.2,88,30.03,10.0,WSW,3.5,-,N/A,,Partly Cloudy,250,2013-07-12 10:03:00
6:51 AM,60.1,59.0,96,30.02,6.0,Calm,Calm,-,N/A,,Overcast,0,2013-07-12 10:51:00
7:05 AM,60.8,57.2,88,30.03,5.0,Calm,Calm,-,N/A,,Overcast,0,2013-07-12 11:05:00
7:28 AM,60.8,59.0,94,30.04,4.0,Calm,Calm,-,N/A,,Mostly Cloudy,0,2013-07-12 11:28:00
7:51 AM,62.1,59.0,90,30.04,8.0,North,3.5,-,N/A,,Overcast,350,2013-07-12 11:51:00
8:27 AM,62.6,59.0,88,30.06,10.0,Calm,Calm,-,N/A,,Mostly Cloudy,0,2013-07-12 12:27:00
8:51 AM,66.0,60.1,81,30.05,10.0,Calm,Calm,-,N/A,,Mostly Cloudy,0,2013-07-12 12:51:00
9:44 AM,66.2,60.8,83,30.09,10.0,Variable,3.5,-,N/A,,Mostly Cloudy,0,2013-07-12 13:44:00
9:51 AM,69.1,61.0,75,30.06,10.0,North,6.9,-,N/A,,Mostly Cloudy,350,2013-07-12 13:51:00
10:21 AM,68.0,59.0,73,30.09,10.0,Calm,Calm,-,N/A,,Overcast,0,2013-07-12 14:21:00
10:51 AM,69.1,59.0,70,30.08,10.0,Variable,4.6,-,N/A,,Overcast,0,2013-07-12 14:51:00
11:51 AM,71.1,59.0,66,30.08,10.0,Calm,Calm,-,N/A,,Overcast,0,2013-07-12 15:51:00
12:51 PM,73.9,59.0,59,30.05,10.0,Calm,Calm,-,N/A,,Overcast,0,2013-07-12 16:51:00
1:51 PM,73.0,57.9,59,30.05,10.0,Calm,Calm,-,N/A,,Overcast,0,2013-07-12 17:51:00
2:51 PM,68.0,61.0,78,30.07,10.0,Calm,Calm,-,0.00,Rain,Light Rain,0,2013-07-12 18:51:00
3:51 PM,72.0,57.9,61,30.05,10.0,Variable,3.5,-,0.00,,Mostly Cloudy,0,2013-07-12 19:51:00
4:51 PM,72.0,57.0,59,30.05,10.0,Variable,3.5,-,N/A,,Overcast,0,2013-07-12 20:51:00
5:51 PM,70.0,57.0,63,30.07,10.0,Variable,3.5,-,N/A,,Overcast,0,2013-07-12 21:51:00
6:51 PM,68.0,57.0,68,30.09,10.0,North,6.9,-,N/A,,Overcast,10,2013-07-12 22:51:00
7:51 PM,66.9,57.9,73,30.09,10.0,North,5.8,-,N/A,,Mostly Cloudy,350,2013-07-12 23:51:00
8:12 PM,66.2,59.0,78,30.11,10.0,North,6.9,-,N/A,,Overcast,350,2013-07-13 00:12:00
8:51 PM,64.0,60.1,87,30.11,10.0,NW,4.6,-,0.00,Rain,Light Rain,320,2013-07-13 00:51:00
9:51 PM,63.0,60.1,90,30.10,10.0,Calm,Calm,-,0.01,,Mostly Cloudy,0,2013-07-13 01:51:00
10:51 PM,63.0,60.1,90,30.13,10.0,Calm,Calm,-,N/A,,Overcast,0,2013-07-13 02:51:00
11:51 PM,63.0,60.1,90,30.13,10.0,Calm,Calm,-,N/A,,Overcast,0,2013-07-13 03:51:00
11:59 PM,62.6,60.8,94,30.15,10.0,Calm,Calm,-,N/A,,Overcast,0,2013-07-13 03:59:00